Regional Weather Roundup
Issued by NWS

Home | Current Version | Previous Version | Graphics & Text | Print | Product List | Glossary Off
Versions: 1 2 3 4 5 6 7 8 9 10 11 12 13 14 15 16 17 18 19 20 21 22 23 24 25 26 27 28 29 30 31 32 33 34 35 36 37 38 39 40 41 42 43 44 45 46 47 48 49 50

000
ASUS43 KMKX 220900
RWRWI

WISCONSIN REGIONAL WEATHER ROUNDUP
NATIONAL WEATHER SERVICE MILWAUKEE/SULLIVAN WI
400 AM CDT FRI AUG 22 2014

NOTE: "FAIR" INDICATES FEW OR NO CLOUDS BELOW 12,000 FEET WITH NO
SIGNIFICANT WEATHER AND/OR OBSTRUCTIONS TO VISIBILITY.

WIZ001-002-006>008-014>016-023>028-221000-
NORTHWEST WISCONSIN

CITY           SKY/WX    TMP DP  RH WIND       PRES   REMARKS
SUPERIOR ARPT  CLOUDY    60  60  99 E10G17    29.91R FOG
ASHLAND        CLOUDY    66  64  93 NE3       29.90S
HAYWARD        CLOUDY    69  68  96 CALM      29.89R FOG
SIREN          CLOUDY    67  65  96 N6        29.88R FOG
RICE LAKE      CLOUDY    71  69  95 CALM      29.88R FOG
LADYSMITH      CLOUDY    69  68  96 E6        29.89F FOG
EAU CLAIRE     CLEAR     70  69  97 CALM      29.84R
MENOMONIE      PTSUNNY   70  69  98 CALM      29.85R FOG
NEW RICHMOND   FOG       70  70 100 NW3       29.86R VSB 3/4
OSCEOLA        CLOUDY    71  71 100 NW7       29.88R FOG
$$

WIZ003>005-009-010-017-018-221000-
NORTH CENTRAL WISCONSIN

CITY           SKY/WX    TMP DP  RH WIND       PRES   REMARKS
WOODRUFF       CLOUDY    64  62  91 SE5       29.93S FOG
RHINELANDER    CLOUDY    63  63 100 E6        29.93F FOG
EAGLE RIVER    CLOUDY    63  63 100 SE6       29.94S
LAND O LAKES   CLOUDY    63  63  99 SE3       29.95S FOG
PHILLIPS       CLOUDY    65  65  99 SE3       29.90S FOG
TOMAHAWK       FOG       64  63  96 CALM      29.92F VSB 3/4
MEDFORD        FOG       65  65 100 SE5       29.90F VSB 1/4
MERRILL        FOG       65  65 100 SE3       29.91F VSB 1/2
$$

WIZ029-030-035-036-043>047-221000-
CENTRAL WISCONSIN

CITY           SKY/WX    TMP DP  RH WIND       PRES   REMARKS
WAUSAU         FOG       65  65 100 SE5       29.89F VSB 1/4
MOSINEE        FOG       64  64 100 CALM      29.91F VSB 1/4
MARSHFIELD     CLOUDY    70  69  97 E5        29.90R FOG
STEVENS POINT  FOG       65  65  99 E3        29.90F VSB 1/4
WAUPACA        CLOUDY    71  69  95 CALM      29.89F FOG
WAUTOMA        FOG       72  70  94 CALM      29.90S VSB 1
WISC RAPIDS    CLOUDY    70  70 100 E3        29.90S FOG
CAMP DOUGLAS   FOG       68  68 100 E3        29.88R VSB 1/2
$$

WIZ011>013-019>022-031-037>040-048>050-221000-
NORTHEAST WISCONSIN

CITY           SKY/WX    TMP DP  RH WIND       PRES   REMARKS
ANTIGO         FOG       63  63 100 E3        29.93F VSB 1/2
STURGEON BAY   CLOUDY    66  64  94 E3        29.92S
GREEN BAY      CLOUDY    66  65  96 E5        29.90F FOG
MANITOWOC      NOT AVBL
APPLETON       MOCLDY    68  66  94 E3        29.90S FOG
CLINTONVILLE   CLOUDY    64  64 100 NE3       29.90S FOG
OSHKOSH        CLOUDY    70  69  97 S3        29.89S FOG
$$

WIZ032>034-041-042-053>061-221000-
SOUTHWEST WISCONSIN

CITY           SKY/WX    TMP DP  RH WIND       PRES   REMARKS
LA CROSSE      MOCLDY    74  71  91 S7        29.86R
SPARTA         CLEAR     66  65  97 CALM      29.87S
VIROQUA        FAIR      71  71 100 S5        29.90R
BOSCOBEL       FOG       69  68  96 CALM      29.89R VSB 1/4
PRAIRIE DU CHI CLEAR     70  68  94 CALM      29.88R FOG
PLATTEVILLE    FAIR      71  70  96 SE5       29.91R
$$

WIZ056-057-062-063-064-067-068-221000-
SOUTH CENTRAL WISCONSIN

CITY           SKY/WX    TMP DP  RH WIND       PRES   REMARKS
BARABOO/DELLS  FOG       68  66  94 CALM      29.89R VSB 1/2
LONE ROCK      MOCLDY    71  67  87 CALM      29.89R FOG
WATERTOWN      FOG       70  70 100 CALM      29.89S VSB 1/4
MADISON        FOG       73  72  96 S5        29.90R VSB 1/2
MIDDLETON      CLOUDY    70  70 100 CALM      29.90R VSB 3/4
MONROE         FOG       72  72 100 SE5       29.90R VSB 1/4
JANESVILLE     MOCLDY    72  70  94 CALM      29.89R FOG
$$

WIZ051-052-058>065-066-070>072-221000-
SOUTHEAST WISCONSIN

CITY           SKY/WX    TMP DP  RH WIND       PRES   REMARKS
MILWAUKEE      FOG       71  69  93 S6        29.91R VSB 1/8
WAUKESHA       FOG       68  68 100 E6        29.92R VSB 1/4
MILWAUKEE/TIMM FOG       68  66  94 SE3       29.91R VSB 1/4
RACINE         FOG       71  70  96 S5        29.92R VSB 1/4
BURLINGTON     FOG       69  68  99 E3        29.91R VSB 1/4
KENOSHA        FOG       70  70 100 S3        29.92R VSB 1/4
FOND DU LAC    CLOUDY    70  68  93 S5        29.90S FOG
SHEBOYGAN      FOG       67  66  97 CALM      29.90F VSB 1/4
WEST BEND      FOG       66  64  94 CALM      29.90F VSB 1/4
JUNEAU         HAZE      70  46  41 CALM      29.91S VSB<1/4
$$

LSZ147-162-221000-
LAKE SUPERIOR

STATION/POSITION TIME  TEMP    WIND        PRES    WAVE
                       AIR SEA DIR/SP/G            HT/PER
                 (UTC) (F)     (DEG/KT/KT) (MB)    (FT/S)
W MID LAKE BUOY  0750   58 59   50/ 12/ 14 1013.2R   2/ 4
DEVILS ISLAND    0800   60      50/ 13/ 14 1012.7R
PORT WING        0840   60      40/ 13/ 14 1012.5S
SAXON HARBOR     0800   66        CALM     1012.2F
$$

LMZ867-665-643>646-221000-
LAKE MICHIGAN

STATION/POSITION TIME  TEMP    WIND        PRES    WAVE
                       AIR SEA DIR/SP/G            HT/PER
                 (UTC) (F)     (DEG/KT/KT) (MB)    (FT/S)
N MID LAKE BUOY  0750   65 64   70/ 10/ 10 1013.1F   0
NORTHPORT PIER   0800   66      70/  5/  9 1013.9S
SISTER BAY       0811   64        CALM       N/A
KEWAUNEE LAKESHO 0800   66      90/  1/  2 1012.3F
SHEBOYGAN LAKESH 0800   67 63   90/  2/  2 1012.8F
ATWATER BUOY     0800   70     140/  6/  8 1013.6F
MILWAUKEE LAKESH 0800   69     140/  2/  2   N/A
S MID LAKE BUOY  0750   69 69  100/  6/  6 1012.3F   0
KENOSHA   LAKESH 0800   70     140/  6/  7 1012.2F
$$

TC  - TEMPERATURE IN CELSIUS
VSB - VISIBILITY IN STATUTE MILES
WCI - WIND CHILL INDEX
HX  - HEAT INDEX



USA.gov is the U.S. government's official web portal to all federal, state and local government web resources and services.